{"data":{"norad_id":60597,"epoch":"2026-09-21T20:39:24.199200Z","epoch_age_seconds":71330,"freshness":"FRESH","line1":"1 60597U 24150Q   26264.86069675 -.00000626  00000+0 -73912-5 0  9998","line2":"2 60597  53.1614 115.2983 0001442  88.6455 271.4712 15.34402431118084","mean_motion":15.34402431,"eccentricity":0.0001442,"inclination_deg":53.1614,"raan_deg":115.2983,"arg_perigee_deg":88.6455,"mean_anomaly_deg":271.4712,"bstar":-7.3912e-6,"rev_number":11808,"period_min":93.847609395504,"perigee_km":461.7095666516,"apogee_km":463.68246289307,"semimajor_km":6840.8330147723,"source":"CELESTRAK","updated_at":"2026-09-22T09:00:49.274364Z"}}